FW6720 Weather Reports


Display with metric or nautical units.
time (UTC)temp
F
wind
direction
speed
MPH
gust
MPH
rain 1hr
in
rain 24hr
in
rain mn
in
humidity
%
barometer
mb
20200402071003 33 263 0.0 0.0 0.00 0.53 0.00 96 1021.3
20200402070503 33 263 0.0 0.0 0.00 0.53 0.00 96 1021.3
20200402070003 33 263 0.0 0.0 0.00 0.53 0.00 96 1021.4
20200402065503 33 263 0.0 1.0 0.00 0.53 0.47 96 1021.2
20200402065002 33 263 0.0 1.0 0.00 0.53 0.47 96 1021.1
20200402064503 32 263 0.0 1.0 0.00 0.53 0.47 96 1021.2
20200402064004 32 263 0.0 1.0 0.00 0.53 0.47 96 1021.3
20200402063503 32 263 0.0 1.0 0.00 0.53 0.47 96 1021.3
20200402063003 32 263 0.0 1.0 0.00 0.53 0.47 96 1021.2
20200402062502 33 261 0.0 1.0 0.00 0.53 0.47 96 1021.2
20200402062002 33 263 0.0 1.0 0.00 0.53 0.47 96 1021.1
20200402061503 33 275 1.0 1.0 0.00 0.53 0.47 96 1020.9
20200402061002 33 282 0.0 0.0 0.00 0.53 0.47 96 1021.0
20200402060503 33 282 0.0 0.0 0.00 0.53 0.47 95 1020.8
20200402060004 33 282 0.0 0.0 0.00 0.53 0.47 95 1021.0
20200402055503 33 281 0.0 0.0 0.00 0.53 0.47 95 1021.0
20200402055002 33 281 0.0 0.0 0.00 0.53 0.47 95 1021.0
20200402054503 33 281 0.0 0.0 0.00 0.53 0.47 95 1021.1
20200402054003 34 281 0.0 1.0 0.00 0.53 0.47 95 1020.9
20200402053503 34 281 0.0 1.0 0.00 0.53 0.47 95 1021.0
20200402053003 34 281 1.0 1.0 0.00 0.53 0.47 95 1020.9
20200402052503 34 281 0.0 1.0 0.00 0.53 0.47 95 1020.9
20200402052003 35 268 0.0 0.0 0.00 0.53 0.47 95 1021.0
20200402051502 35 268 0.0 1.0 0.00 0.54 0.47 95 1021.0
20200402051003 35 268 0.0 1.0 0.00 0.54 0.47 95 1020.7
20200402050502 35 268 0.0 1.0 0.00 0.54 0.47 95 1020.8
20200402050003 35 268 1.0 1.0 0.00 0.54 0.47 95 1020.8
20200402045503 35 268 0.0 1.0 0.00 0.54 0.47 95 1020.7
20200402045002 35 268 0.0 1.0 0.00 0.54 0.47 95 1020.6
20200402044504 35 268 0.0 1.0 0.00 0.54 0.47 95 1020.7
20200402044002 35 268 0.0 1.0 0.00 0.54 0.47 95 1020.7
20200402043503 36 268 0.0 1.0 0.00 0.54 0.47 95 1020.5
20200402043003 36 268 0.0 1.0 0.00 0.54 0.47 95 1020.6
20200402042502 36 268 0.0 0.0 0.00 0.54 0.47 95 1020.5
20200402042003 36 269 0.0 0.0 0.00 0.54 0.47 95 1020.6
20200402041503 37 269 0.0 0.0 0.00 0.54 0.47 95 1020.6
20200402041002 37 269 0.0 0.0 0.00 0.54 0.47 95 1020.2
20200402040503 37 269 0.0 0.0 0.00 0.54 0.47 95 1020.3
20200402040002 37 269 0.0 0.0 0.00 0.54 0.47 95 1020.3
20200402035503 37 269 0.0 0.0 0.00 0.54 0.47 95 1020.1
20200402035002 38 268 0.0 1.0 0.00 0.54 0.47 95 1020.2
20200402034503 38 269 0.0 1.0 0.00 0.54 0.47 95 1020.1
20200402034004 38 276 0.0 1.0 0.00 0.54 0.47 95 1020.0
20200402033503 38 276 0.0 1.0 0.00 0.54 0.47 95 1019.8
20200402033003 39 276 0.0 1.0 0.00 0.54 0.47 95 1020.0
20200402032503 39 276 0.0 1.0 0.00 0.55 0.47 95 1019.7
20200402032002 39 277 0.0 1.0 0.00 0.55 0.47 94 1019.8
20200402031502 39 289 0.0 1.0 0.00 0.55 0.47 94 1019.8
20200402031003 40 341 1.0 1.0 0.00 0.55 0.47 94 1019.5
20200402030502 40 341 0.0 1.0 0.00 0.55 0.47 94 1019.6
20200402030003 40 341 0.0 1.0 0.00 0.55 0.47 94 1019.5
20200402025503 41 342 0.0 1.0 0.00 0.55 0.47 93 1019.4
20200402025002 41 342 1.0 1.0 0.00 0.55 0.47 93 1019.3
20200402024503 41 342 0.0 1.0 0.00 0.56 0.47 93 1019.4
20200402024003 42 3 1.0 1.0 0.00 0.56 0.47 93 1019.5
20200402023502 42 330 0.0 1.0 0.00 0.56 0.47 93 1019.1
20200402023003 42 297 0.0 1.0 0.00 0.56 0.47 93 1019.3
20200402022502 43 297 0.0 1.0 0.00 0.56 0.47 92 1019.4
20200402022003 42 297 0.0 1.0 0.00 0.56 0.47 91 1019.4
20200402021503 43 297 0.0 1.0 0.00 0.56 0.47 92 1019.4
20200402021003 44 268 1.0 1.0 0.00 0.56 0.47 92 1019.0
20200402020503 44 271 0.0 1.0 0.00 0.56 0.47 89 1019.0
20200402020003 44 267 1.0 1.0 0.00 0.56 0.47 90 1019.0
20200402015503 44 266 0.0 1.0 0.00 0.56 0.47 88 1019.0
20200402015002 44 266 0.0 1.0 0.00 0.56 0.47 88 1019.1
20200402014502 44 266 0.0 1.0 0.00 0.56 0.47 90 1019.0
20200402014004 44 267 0.0 1.0 0.00 0.56 0.47 90 1018.9
20200402013503 44 267 0.0 1.0 0.00 0.56 0.47 91 1018.8
20200402013002 44 255 0.0 1.0 0.00 0.56 0.47 92 1018.8
20200402012503 44 222 1.0 1.0 0.00 0.56 0.47 92 1018.8
20200402012003 44 154 0.0 0.0 0.00 0.56 0.47 90 1018.8
20200402011502 43 153 0.0 1.0 0.00 0.56 0.47 91 1018.9
20200402011003 43 153 0.0 1.0 0.03 0.56 0.47 92 1018.8
20200402010503 44 152 1.0 1.0 0.03 0.56 0.47 92 1018.7
20200402010003 43 148 0.0 1.0 0.03 0.56 0.47 91 1018.8
20200402005502 44 178 0.0 1.0 0.03 0.56 0.47 90 1018.8
20200402005003 44 193 1.0 1.0 0.03 0.56 0.47 89 1018.8
20200402004502 44 212 0.0 1.0 0.03 0.58 0.47 88 1018.8
20200402004003 44 188 0.0 1.0 0.03 0.58 0.47 90 1018.6
20200402003503 43 145 0.0 1.0 0.03 0.58 0.47 91 1018.7
20200402003003 43 145 1.0 1.0 0.03 0.58 0.47 90 1018.6
20200402002503 43 185 1.0 1.0 0.03 0.58 0.47 89 1018.5
20200402002002 43 215 0.0 1.0 0.03 0.58 0.47 89 1018.5
20200402001502 43 308 1.0 2.0 0.03 0.58 0.47 89 1018.6
20200402001003 43 275 0.0 2.0 0.00 0.55 0.44 87 1018.5
20200402000505 44 280 1.0 1.0 0.00 0.55 0.44 86 1018.4
20200402000110 44 280 1.0 1.0 0.00 0.55 0.44 86 1018.3
20200401235503 44 261 1.0 1.0 0.00 0.55 0.44 88 1018.4
20200401235002 44 264 1.0 1.0 0.00 0.55 0.44 90 1018.4
20200401234502 44 97 1.0 1.0 0.00 0.55 0.44 86 1018.5
20200401234003 45 144 0.0 1.0 0.00 0.55 0.44 86 1018.1
20200401233503 45 197 0.0 2.0 0.00 0.55 0.44 85 1018.0
20200401233003 45 210 0.0 2.0 0.00 0.55 0.44 84 1018.2
20200401232502 46 186 0.0 1.0 0.00 0.55 0.44 81 1018.0
20200401232002 46 217 1.0 2.0 0.00 0.55 0.44 82 1018.0
20200401231502 46 217 1.0 2.0 0.00 0.55 0.44 82 1018.0
20200401231003 46 177 2.0 5.0 0.00 0.55 0.44 84 1018.0
20200401230503 46 173 1.0 5.0 0.00 0.55 0.44 84 1018.0
20200401230003 46 142 2.0 5.0 0.00 0.55 0.44 82 1017.9
20200401225504 46 209 2.0 5.0 0.00 0.55 0.44 83 1017.9
20200401225003 45 234 2.0 5.0 0.00 0.55 0.44 83 1017.8
20200401224503 46 193 2.0 3.0 0.00 0.55 0.44 82 1017.9
20200401224002 44 120 1.0 2.0 0.00 0.55 0.44 84 1017.8
20200401223502 44 107 1.0 3.0 0.00 0.55 0.44 84 1017.8
20200401223003 44 135 1.0 3.0 0.00 0.55 0.44 84 1017.8
20200401222502 46 214 2.0 3.0 0.00 0.55 0.44 84 1018.0
20200401222003 45 208 1.0 2.0 0.00 0.55 0.44 86 1018.0
20200401221503 44 198 1.0 3.0 0.00 0.55 0.44 87 1017.8
20200401221003 44 184 1.0 3.0 0.00 0.55 0.44 86 1017.9
20200401220503 45 178 2.0 3.0 0.00 0.55 0.44 85 1017.8
20200401220002 44 205 2.0 3.0 0.00 0.55 0.44 87 1017.9
20200401215503 44 124 2.0 2.0 0.00 0.56 0.44 86 1017.9
20200401215005 44 238 0.0 1.0 0.00 0.56 0.44 87 1017.9
20200401214502 43 251 0.0 1.0 0.00 0.56 0.44 88 1017.8
20200401214003 43 248 0.0 1.0 0.00 0.57 0.44 88 1018.0
20200401213503 43 285 0.0 0.0 0.00 0.57 0.44 88 1017.8
20200401213003 43 285 0.0 1.0 0.00 0.57 0.44 88 1017.8
20200401212506 43 285 0.0 1.0 0.00 0.57 0.44 88 1017.8
20200401212002 43 284 1.0 1.0 0.00 0.57 0.44 88 1017.8
20200401211503 42 285 0.0 1.0 0.00 0.57 0.44 90 1017.6
20200401211003 42 285 1.0 1.0 0.00 0.57 0.44 91 1017.7
20200401210502 42 284 0.0 1.0 0.00 0.57 0.44 89 1017.7
20200401210004 42 214 0.0 2.0 0.00 0.57 0.44 90 1017.8
20200401205502 42 247 0.0 2.0 0.00 0.57 0.44 90 1017.7
20200401205003 42 278 1.0 2.0 0.00 0.57 0.44 91 1017.8
20200401204503 42 237 0.0 3.0 0.00 0.58 0.44 89 1017.7
20200401204003 42 235 1.0 3.0 0.00 0.58 0.44 89 1017.7
20200401203502 43 180 1.0 3.0 0.00 0.58 0.44 89 1017.7
20200401203003 43 229 1.0 2.0 0.00 0.58 0.44 88 1017.9
20200401202502 43 136 1.0 2.0 0.00 0.60 0.44 87 1017.7
20200401202003 42 258 1.0 1.0 0.01 0.60 0.44 89 1017.6
20200401201503 41 281 1.0 2.0 0.02 0.60 0.44 90 1017.7
20200401201002 41 257 1.0 2.0 0.02 0.62 0.44 88 1017.7
20200401200503 41 180 2.0 3.0 0.03 0.63 0.44 90 1017.7
20200401200022 41 149 2.0 3.0 0.04 0.63 0.44 90 1017.5
20200401195502 41 193 1.0 2.0 0.05 0.63 0.44 90 1017.8
20200401195007 40 142 0.0 0.0 0.06 0.64 0.44 91 1017.7
20200401194502 40 94 0.0 0.0 0.07 0.64 0.44 91 1017.8
20200401194004 40 190 0.0 0.0 0.09 0.64 0.44 90 1017.9
20200401193503 40 250 0.0 0.0 0.11 0.64 0.44 91 1017.8
20200401193003 39 243 0.0 0.0 0.13 0.64 0.44 92 1017.9
20200401192503 39 252 0.0 0.0 0.16 0.64 0.44 91 1017.9
20200401192002 38 258 0.0 0.0 0.16 0.63 0.43 93 1017.9
20200401191502 38 222 0.0 0.0 0.16 0.62 0.42 93 1017.9
20200401191003 38 205 0.0 0.0 0.16 0.62 0.42 93 1018.2
20200401190502 37 188 0.0 0.0 0.15 0.61 0.41 92 1018.1
20200401190003 37 210 0.0 0.0 0.14 0.60 0.40 93 1018.0
20200401185502 37 209 0.0 0.0 0.13 0.59 0.39 93 1018.1
20200401185003 37 294 0.0 0.0 0.12 0.59 0.38 93 1018.0
20200401184503 36 294 0.0 0.0 0.11 0.58 0.37 93 1018.1
20200401184003 36 281 0.0 0.0 0.09 0.57 0.35 93 1018.0
20200401183502 36 282 0.0 0.0 0.07 0.55 0.33 93 1018.0
20200401183003 36 282 0.0 0.0 0.05 0.54 0.31 94 1018.2
20200401182502 35 53 0.0 0.0 0.02 0.52 0.28 94 1018.0
20200401182002 35 50 0.0 0.0 0.01 0.51 0.27 95 1018.2
20200401181503 34 205 0.0 0.0 0.00 0.50 0.26 95 1018.3
20200401181003 34 204 0.0 0.0 0.00 0.50 0.26 95 1018.2
20200401180502 34 204 0.0 0.0 0.00 0.50 0.26 95 1018.0
20200401180003 34 204 0.0 0.0 0.00 0.51 0.26 95 1018.2
20200401175502 34 204 0.0 0.0 0.00 0.51 0.26 95 1018.2
20200401175003 34 204 0.0 0.0 0.00 0.51 0.26 95 1017.9
20200401174503 33 205 0.0 0.0 0.00 0.51 0.26 95 1017.9
20200401174003 33 205 0.0 0.0 0.00 0.51 0.26 95 1018.1
20200401173502 33 205 0.0 0.0 0.19 0.51 0.26 95 1017.8
20200401173002 33 205 0.0 0.0 0.19 0.51 0.26 95 1018.0
20200401172503 33 205 0.0 0.0 0.20 0.51 0.26 95 1017.8
20200401172003 33 205 0.0 0.0 0.20 0.51 0.26 95 1017.9
20200401171502 33 205 0.0 0.0 0.21 0.51 0.26 95 1017.8
20200401171004 33 205 0.0 0.0 0.22 0.51 0.26 95 1017.9
20200401170503 33 205 0.0 0.0 0.24 0.51 0.26 95 1017.9
20200401170003 33 205 0.0 0.0 0.25 0.51 0.26 95 1017.8
20200401165503 34 205 0.0 0.0 0.25 0.51 0.26 95 1017.9
20200401165003 33 205 0.0 0.0 0.26 0.51 0.26 95 1017.8
20200401164504 33 205 0.0 0.0 0.26 0.51 0.26 95 1017.6
20200401164004 33 205 0.0 0.0 0.26 0.51 0.26 95 1017.9
20200401090503 35 326 0.0 1.0 0.07 0.32 0.07 95 1018.2
20200401090004 35 326 0.0 1.0 0.07 0.32 0.07 95 1018.1
20200401085503 35 326 0.0 1.0 0.06 0.32 0.06 95 1018.3
20200401085003 35 326 0.0 1.0 0.06 0.32 0.06 95 1018.1
20200401084505 35 326 0.0 1.0 0.05 0.30 0.05 95 1018.4
20200401084004 35 326 0.0 1.0 0.04 0.30 0.04 95 1018.3
20200401083503 35 326 0.0 0.0 0.02 0.27 0.02 95 1018.3
20200401083005 35 326 0.0 1.0 0.01 0.26 0.01 95 1018.3
20200401082517 35 326 0.0 1.0 0.01 0.26 0.01 95 1018.2
20200401082003 35 326 0.0 1.0 0.00 0.25 0.00 95 1018.3
20200401081503 35 326 0.0 1.0 0.00 0.25 0.00 95 1018.3
20200401081003 35 326 0.0 0.0 0.00 0.25 0.00 95 1018.5
20200401080503 35 326 0.0 0.0 0.00 0.25 0.00 95 1018.3
20200401080003 35 326 0.0 0.0 0.00 0.25 0.00 95 1018.2
20200401075503 35 326 0.0 0.0 0.00 0.25 0.00 95 1018.2
20200401075003 35 326 0.0 1.0 0.00 0.25 0.00 95 1018.2
20200401074503 35 326 0.0 1.0 0.00 0.25 0.00 95 1018.2
20200401074003 35 326 0.0 1.0 0.00 0.25 0.00 95 1018.1
20200401073504 35 326 0.0 0.0 0.00 0.25 0.00 95 1018.3
20200401073008 36 326 0.0 0.0 0.00 0.25 0.00 95 1018.3
20200401072504 36 326 0.0 0.0 0.00 0.25 0.00 95 1018.2
20200401072004 36 326 0.0 0.0 0.00 0.26 0.00 95 1018.4
20200401071504 36 326 0.0 0.0 0.00 0.27 0.00 95 1018.4
20200401071011 36 325 0.0 0.0 0.00 0.30 0.00 95 1018.5